[[{"header":{"parameterUnit":"m.s-1","parameterCategory":1,"la1":30.2992,"la2":30.254,"lo1":-89.0895,"lo2":-89.0443,"dy":0.0025,"dx":0.0025,"nx":19,"ny":19,"refTime":"2026-05-07T09:00:00:Z","depth":0,"parameterNumber":2,"parameterNumberName":"U-component_of_WINDS"},"data":[0,0,0,1.4909,1.491,1.4949,1.4949,1.501,1.5011,0,0,0,0,0,0,0,0,0,0,0,1.4906,1.4907,1.4909,1.491,1.4949,1.4949,1.501,1.5011,0,0,0,0,0,0,0,0,0,0,0,1.4906,1.4907,1.4908,1.491,1.4949,1.4949,1.501,1.4976,0,0,0,0,0,0,0,0,0,0,1.4937,1.4943,1.4907,1.4908,1.4911,1.4949,1.4949,1.4975,1.4978,1.4999,0,1.502,0,1.5016,1.5016,1.5016,0,0,0,1.4904,1.494,1.4942,1.4908,1.4911,1.4949,1.4929,1.4977,1.4981,1.5004,1.502,1.5022,1.5018,1.5017,1.5017,1.5157,1.5157,0,0,1.4901,1.4918,1.4939,1.4946,1.4942,1.4928,1.4931,1.4979,1.4998,1.5021,1.5024,1.5019,1.5017,1.5018,1.5156,1.5157,0,0,0,1.49,1.4917,1.4918,1.4944,1.495,1.493,1.4932,1.4996,1.4995,1.5024,1.5019,1.5017,1.5018,1.5155,1.5156,1.5219,0,0,0,1.4898,1.4915,1.4917,1.4927,1.4949,1.4973,1.4948,1.4991,1.4996,1.5019,1.5017,1.5019,1.5153,1.5155,1.5215,1.5246,0,0,0,1.4901,1.4916,1.4924,1.4928,1.4945,1.4972,1.4974,1.4992,1.4994,1.5016,1.5019,1.5153,1.5155,1.5211,1.524,1.5287,0,0,0,1.4908,1.498,1.4926,1.5004,1.4945,1.5011,1.4973,1.5022,1.5049,1.5018,1.5154,1.5156,1.521,1.5236,1.5283,1.5329,1.5349,0,0,1.5008,1.4993,1.5037,1.499,1.507,1.5004,1.5093,1.5102,1.5089,1.5135,1.5138,1.5216,1.524,1.5286,1.5461,1.5478,0,0,0,1.5074,1.5107,1.5124,1.5151,1.516,1.517,1.5164,1.5167,1.5205,1.5116,1.5246,1.5259,1.5286,1.5307,1.5321,1.5342,1.5167,1.5166,1.5166,1.5238,1.5218,1.5291,1.5275,1.5301,1.5294,1.5313,1.5316,1.5288,1.5319,1.5332,1.5441,1.5466,1.5477,1.5499,1.5355,1.5355,1.5356,1.5356,1.5382,1.5424,1.5385,1.5441,1.5419,1.5465,1.5461,1.5439,1.5479,1.543,1.5452,1.5399,1.5496,1.5514,1.536,1.536,1.5359,1.5358,1.5358,1.5486,1.5503,1.5506,1.5542,1.5572,1.5553,1.5593,1.5571,1.5551,1.5573,1.5584,1.5583,1.5578,1.558,1.5581,1.5581,1.5581,1.5581,1.5582,1.5593,1.5594,1.5631,1.5646,1.566,1.5675,1.5669,1.5681,1.569,1.5671,1.5671,1.5639,1.5509,1.5477,1.5587,1.5586,1.5586,1.5585,1.5585,1.5744,1.5707,1.5763,1.5777,1.5792,1.5823,1.5795,1.5823,1.583,1.585,1.5814,1.5722,1.5704,1.5693,1.5665,1.5819,1.5819,1.5819,1.5819,1.5832,1.5821,1.5873,1.5897,1.5917,1.5898,1.596,1.5956,1.5945,1.5948,1.5923,1.5885,1.5874,1.5863,1.5848,1.5822,1.6012,1.6012,1.6012,1.5923,1.5913,1.5971,1.5961,1.5971,1.598,1.6038,1.6066,1.6046,1.6019,1.5949,1.5941,1.588,1.5861,1.5833,1.581,1.5762,0,0]},{"header":{"parameterUnit":"m.s-1","parameterCategory":1,"la1":30.2992,"la2":30.254,"lo1":-89.0895,"lo2":-89.0443,"dy":0.0025,"dx":0.0025,"nx":19,"ny":19,"refTime":"2026-05-07T09:00:00:Z","depth":0,"parameterNumber":3,"parameterNumberName":"V-component_of_WINDS"},"data":[0,0,0,3.0459,3.0462,3.0595,3.0595,3.0765,3.0767,0,0,0,0,0,0,0,0,0,0,0,3.0423,3.0424,3.0459,3.0462,3.0595,3.0595,3.0765,3.0767,0,0,0,0,0,0,0,0,0,0,0,3.0422,3.0424,3.0425,3.0463,3.0595,3.0595,3.0765,3.0664,0,0,0,0,0,0,0,0,0,0,3.0534,3.0505,3.0423,3.0426,3.0463,3.0594,3.0595,3.0659,3.067,3.0706,0,3.0743,0,3.0758,3.0779,3.0779,0,0,0,3.0459,3.0496,3.0529,3.0426,3.0465,3.0594,3.0534,3.0665,3.0678,3.0721,3.0745,3.0751,3.0761,3.078,3.0781,3.1009,3.101,0,0,3.0451,3.0448,3.052,3.0537,3.0521,3.053,3.0538,3.0673,3.0697,3.0746,3.0755,3.0763,3.0781,3.0782,3.1008,3.1009,0,0,0,3.0433,3.0443,3.0473,3.0531,3.0555,3.0534,3.0543,3.0691,3.0701,3.0757,3.0765,3.0782,3.0784,3.1007,3.1009,3.1067,0,0,0,3.0428,3.0432,3.047,3.0469,3.0552,3.0625,3.0559,3.0692,3.0707,3.0765,3.0782,3.0786,3.1005,3.1008,3.1062,3.1095,0,0,0,3.0413,3.043,3.0451,3.0468,3.0526,3.0623,3.0641,3.0695,3.0713,3.078,3.0786,3.1004,3.1007,3.1058,3.1088,3.1154,0,0,0,3.0395,3.0499,3.0452,3.0571,3.0525,3.0659,3.064,3.074,3.0804,3.0783,3.1006,3.1008,3.1057,3.1084,3.115,3.1209,3.1234,0,0,3.0524,3.0515,3.0585,3.0547,3.0689,3.0639,3.0789,3.085,3.0858,3.0957,3.0963,3.1064,3.1088,3.1153,3.1373,3.1392,0,0,0,3.0625,3.0676,3.0714,3.0777,3.0828,3.0873,3.0912,3.0934,3.1019,3.091,3.1106,3.112,3.1158,3.1187,3.1203,3.1236,3.1021,3.1021,3.1021,3.0802,3.0809,3.0926,3.0949,3.101,3.1049,3.1098,3.1134,3.1122,3.1168,3.1197,3.133,3.1364,3.1376,3.141,3.1229,3.1229,3.123,3.123,3.0992,3.1065,3.1048,3.1155,3.116,3.1249,3.129,3.1278,3.136,3.1308,3.1342,3.1285,3.1397,3.1428,3.1234,3.1234,3.1233,3.1233,3.1232,3.111,3.1146,3.1173,3.1264,3.1333,3.1351,3.1432,3.1433,3.1434,3.1468,3.1499,3.1498,3.1497,3.1483,3.1484,3.1484,3.1484,3.1485,3.1485,3.122,3.1249,3.1318,3.1381,3.1422,3.1475,3.1515,3.1554,3.1596,3.1591,3.1591,3.1573,3.1408,3.1366,3.1492,3.1491,3.149,3.1489,3.1489,3.141,3.1368,3.1475,3.1516,3.1589,3.1657,3.1658,3.1737,3.1769,3.1808,3.1783,3.1661,3.165,3.1637,3.1602,3.1782,3.1782,3.1782,3.1782,3.1509,3.1504,3.1614,3.1679,3.1743,3.1755,3.1873,3.1904,3.1929,3.1949,3.1923,3.1877,3.1864,3.1861,3.1843,3.1811,3.204,3.204,3.204,3.1626,3.1628,3.173,3.1757,3.1814,3.1863,3.1974,3.2047,3.2066,3.205,3.1964,3.1953,3.188,3.1855,3.1838,3.181,3.1751,0,0]}]]